This is the latest recevied weather packets stored in our database for station/object KA7EII-13. If no packets are shown the sender has not sent any weather packets the latest 10 day(s).
| Time | Temp. | Humidity | Pressure | Rain* | Wind** | Luminosity | Snow |
|---|---|---|---|---|---|---|---|
| 1777853411 | 23.33° C | 20% | 1099.8 hPa | 0 mm | - | 209 W/m² | - |
| 1777853108 | 23.89° C | 20% | 1099.8 hPa | 0 mm | - | 216 W/m² | - |
| 1777852805 | 24.44° C | 19% | 1099.9 hPa | 0 mm | - | 235 W/m² | - |
| 1777852504 | 24.44° C | 19% | 1100 hPa | 0 mm | - | 254 W/m² | - |
| 1777852200 | 25° C | 19% | 1100.1 hPa | 0 mm | - | 277 W/m² | - |
| 1777851898 | 25° C | 20% | 1100 hPa | 0 mm | - | 276 W/m² | - |
| 1777851596 | 25° C | 19% | 1100.3 hPa | 0 mm | - | 285 W/m² | - |
| 1777851292 | 24.44° C | 21% | 1100.1 hPa | 0 mm | - | 296 W/m² | - |
| 1777850988 | 24.44° C | 20% | 1100.1 hPa | 0 mm | - | 308 W/m² | - |
| 1777850685 | 24.44° C | 20% | 1100.3 hPa | 0 mm | - | 313 W/m² | - |
| 1777850383 | 23.89° C | 19% | 1100 hPa | 0 mm | - | 328 W/m² | - |
| 1777850080 | 23.89° C | 20% | 1100.5 hPa | 0 mm | - | 350 W/m² | - |
| 1777849777 | 25° C | 21% | 1100.6 hPa | 0 mm | - | 373 W/m² | - |
| 1777849473 | 25.56° C | 20% | 1100.3 hPa | 0 mm | - | 402 W/m² | - |
| 1777849171 | 25° C | 21% | 1100.7 hPa | 0 mm | - | 419 W/m² | - |
| 1777848868 | 25° C | 19% | 1100.9 hPa | 0 mm | - | 428 W/m² | - |
| 1777848563 | 24.44° C | 19% | 1100.7 hPa | 0 mm | - | 422 W/m² | - |
| 1777848260 | 24.44° C | 20% | 1100.6 hPa | 0 mm | - | 403 W/m² | - |
| 1777847958 | 24.44° C | 21% | 1100.8 hPa | 0 mm | - | 426 W/m² | - |
| 1777847656 | 24.44° C | 22% | 1100.9 hPa | 0 mm | - | 471 W/m² | - |
| 1777847351 | 24.44° C | 19% | 1101.2 hPa | 0 mm | - | 503 W/m² | - |
| 1777847050 | 24.44° C | 20% | 1101.1 hPa | 0 mm | - | 491 W/m² | - |
| 1777846747 | 24.44° C | 19% | 1101.1 hPa | 0 mm | - | 515 W/m² | - |
| 1777846446 | 25° C | 19% | 1101.3 hPa | 0 mm | - | 567 W/m² | - |
| 1777846142 | 24.44° C | 19% | 1101.3 hPa | 0 mm | - | 621 W/m² | - |
* Rain latest hour (hover to see other rain measurements)
** Current wind speed in m/s (hover to see current wind gust speed)